[[{"header":{"parameterUnit":"m.s-1","parameterCategory":1,"la1":30.2991,"la2":30.254,"lo1":-89.0895,"lo2":-89.0444,"dy":0.0017,"dx":0.0017,"nx":28,"ny":28,"refTime":"2025-03-30T03:00:00:Z","depth":0,"parameterNumber":2,"parameterNumberName":"U-component_of_WINDS"},"data":[0,0,0,0,0,0,0,0,0,0,0,0,0,0,0,0,0,0,0,0,0,0,0,0,0,0,0,0,0,0,0,0,0,0,0,0,0,0,0,0,0,0,0,0,0,0,0,0,0,0,0,0,0,0,0,0,0,0,0.2314,0.2315,0,0.2386,0.2387,0.2388,0.2358,0.2357,0.2355,0.2353,0.2435,0.2438,0.2442,0,0,0,0,0,0,0,0,0,0,0,0,0,0.2161,0.2164,0.2314,0.2315,0.2316,0.2386,0.2387,0.2388,0.2359,0.2356,0.2354,0.2352,0.2433,0.2438,0.2443,0,0,0,0,0,0,0,0,0,0,0,0,0,0.223,0.2165,0.2314,0.231,0.231,0.2386,0.2387,0.2388,0.2359,0.2356,0.2354,0.2351,0.2432,0.2438,0.2443,0.253,0,0,0.246,0.2463,0,0,0,0,0,0,0,0,0.2226,0.2236,0.2309,0.231,0.231,0.236,0.2363,0.2436,0.236,0.2341,0.2353,0.235,0.2413,0.242,0.2439,0.2534,0.2538,0.2461,0.2464,0.2467,0.2468,0,0,0,0,0,0,0,0.2221,0.2232,0.2343,0.2311,0.2311,0.2307,0.2314,0.2377,0.2391,0.2342,0.234,0.2349,0.2413,0.2434,0.2441,0.2539,0.2461,0.2466,0.2469,0.2472,0.2714,0.2717,0,0,0,0,0,0,0.2215,0.2229,0.2341,0.2345,0.2261,0.2312,0.232,0.2347,0.239,0.2394,0.2351,0.2347,0.2425,0.2434,0.2444,0.2552,0.2467,0.2472,0.2475,0.2711,0.2715,0.2718,0,0,0,0,0,0,0.2212,0.2225,0.2338,0.2286,0.23,0.2317,0.2349,0.235,0.2371,0.2396,0.2399,0.2369,0.2424,0.2436,0.251,0.2554,0.2475,0.248,0.2707,0.2712,0.2716,0.2767,0,0,0,0,0,0,0.2208,0.2224,0.2255,0.2287,0.2303,0.24,0.2351,0.2353,0.238,0.2376,0.2414,0.2419,0.2423,0.2501,0.2515,0.2561,0.2484,0.2704,0.271,0.2715,0.2762,0.2773,0.2783,0,0,0,0,0,0.2202,0.2268,0.2257,0.2271,0.2342,0.2402,0.2412,0.2413,0.2384,0.2417,0.2434,0.2417,0.2546,0.2509,0.2524,0.2572,0.2701,0.2708,0.2714,0.2757,0.2771,0.2782,0,0,0,0,0,0,0.2243,0.2272,0.226,0.2337,0.2367,0.2397,0.2438,0.2426,0.2467,0.2462,0.2464,0.2473,0.255,0.2568,0.2526,0.2662,0.262,0.263,0.2647,0.266,0.267,0.2666,0.2489,0,0,0,0,0,0.226,0.2304,0.2328,0.2394,0.2409,0.2421,0.2448,0.2446,0.2478,0.2492,0.2513,0.2548,0.2597,0.2629,0.2675,0.2763,0.2774,0.2805,0.2815,0.2823,0.2833,0.2886,0.2901,0.274,0.274,0.274,0,0,0.2297,0.2318,0.2346,0.2402,0.2425,0.2475,0.2432,0.2485,0.2523,0.25,0.2572,0.2589,0.2628,0.2711,0.2749,0.2729,0.288,0.2832,0.2839,0.2844,0.2895,0.291,0.2924,0.2745,0.2744,0.2743,0,0,0.2391,0.2409,0.2468,0.2492,0.2527,0.2535,0.2549,0.2581,0.2592,0.2663,0.2648,0.2695,0.2777,0.2807,0.2833,0.294,0.2929,0.2955,0.3011,0.3063,0.3076,0.3087,0.313,0.3144,0.2964,0.2965,0.2965,0,0.2433,0.2504,0.25,0.2555,0.2582,0.2562,0.2624,0.2648,0.2698,0.2719,0.2694,0.28,0.2825,0.2916,0.2943,0.2963,0.2983,0.2952,0.3073,0.3085,0.3095,0.3136,0.3152,0.2968,0.2968,0.2967,0.2967,0,0.2557,0.2606,0.265,0.2696,0.2728,0.2786,0.2795,0.2828,0.2824,0.2836,0.2911,0.294,0.2993,0.3014,0.3011,0.3107,0.3094,0.3072,0.3031,0.3114,0.3153,0.3168,0.2973,0.2971,0.297,0.297,0,0,0.2678,0.2722,0.2739,0.2762,0.28,0.284,0.2899,0.2949,0.2979,0.3015,0.3067,0.3139,0.3119,0.3149,0.3149,0.3194,0.3283,0.3167,0.3168,0.3191,0.3396,0.3415,0.3432,0.3274,0.3277,0.3279,0.3394,0,0.2777,0.2878,0.2877,0.2972,0.3021,0.3003,0.3055,0.3087,0.31,0.3146,0.3161,0.3213,0.3181,0.32,0.3243,0.3263,0.3325,0.3254,0.3328,0.3331,0.3322,0.3452,0.3472,0.3578,0.3408,0.3411,0.3413,0,0.2906,0.2945,0.3044,0.3078,0.3098,0.3145,0.3193,0.3235,0.3272,0.3279,0.3313,0.3307,0.3372,0.3327,0.3418,0.337,0.3401,0.3415,0.342,0.3429,0.3379,0.3469,0.3611,0.3629,0.3435,0.3434,0.3432,0,0.299,0.3066,0.3136,0.3156,0.3196,0.323,0.325,0.3283,0.3315,0.3358,0.3379,0.3429,0.3458,0.3499,0.3509,0.3474,0.3603,0.3557,0.3614,0.3614,0.3645,0.3643,0.3798,0.3658,0.3658,0.3657,0.3657,0,0.3102,0.3165,0.3175,0.3218,0.3289,0.329,0.3361,0.3378,0.3409,0.3459,0.3447,0.3494,0.3503,0.3553,0.3562,0.3639,0.3651,0.3662,0.3664,0.3665,0.3665,0.3688,0.3682,0.3661,0.3661,0.366,0.3659,0,0.3209,0.3217,0.3293,0.3325,0.3335,0.3387,0.3416,0.346,0.3472,0.3536,0.3551,0.3571,0.363,0.3643,0.3714,0.372,0.3813,0.3806,0.3801,0.3801,0.3859,0.3855,0.4037,0.4063,0.3903,0.3904,0.3905,0,0.3282,0.3329,0.3367,0.3398,0.3419,0.3469,0.3501,0.3504,0.3539,0.3586,0.3626,0.3683,0.373,0.3826,0.385,0.3905,0.3902,0.3962,0.391,0.3911,0.3908,0.3907,0.3914,0.3973,0.3974,0.3976,0.3977,0,0.3412,0.3414,0.3459,0.3507,0.3545,0.3583,0.362,0.3647,0.3656,0.3696,0.3756,0.3792,0.3864,0.3924,0.3979,0.4003,0.3994,0.3992,0.401,0.4013,0.4009,0.4017,0.3832,0.3989,0.3988,0.3987,0.3986,0.3986,0.3507,0.355,0.3584,0.3636,0.3663,0.3698,0.3742,0.3759,0.3808,0.3866,0.3866,0.3932,0.3972,0.4046,0.4073,0.4128,0.411,0.4133,0.414,0.4147,0.4154,0.3997,0.4138,0.4137,0.4137,0.4137,0.4136,0,0.364,0.3661,0.3708,0.376,0.3802,0.3785,0.3826,0.3864,0.3921,0.3958,0.4004,0.4075,0.4133,0.4161,0.422,0.4259,0.4256,0.4274,0.4274,0.428,0.4165,0.4146,0.4276,0.4276,0.4276,0.4275,0.4275,0.4275,0.3714,0.3788,0.3795,0.3884,0.3905,0.3968,0.3994,0.4028,0.4057,0.4136,0.4184,0.42,0.4235,0.4297,0.4351,0.4358,0.4383,0.4404,0.4409,0.4302,0.4288,0.4274,0.4257,0.4408,0.4408,0.4521,0.4522,0.4523]},{"header":{"parameterUnit":"m.s-1","parameterCategory":1,"la1":30.2991,"la2":30.254,"lo1":-89.0895,"lo2":-89.0444,"dy":0.0017,"dx":0.0017,"nx":28,"ny":28,"refTime":"2025-03-30T03:00:00:Z","depth":0,"parameterNumber":3,"parameterNumberName":"V-component_of_WINDS"},"data":[0,0,0,0,0,0,0,0,0,0,0,0,0,0,0,0,0,0,0,0,0,0,0,0,0,0,0,0,0,0,0,0,0,0,0,0,0,0,0,0,0,0,0,0,0,0,0,0,0,0,0,0,0,0,0,0,0,0,0.9557,0.9559,0,0.9712,0.9714,0.9715,0.9736,0.9735,0.9733,0.9732,0.9891,0.9896,0.9902,0,0,0,0,0,0,0,0,0,0,0,0,0,0.9281,0.9286,0.9557,0.9559,0.9561,0.9712,0.9714,0.9716,0.9736,0.9735,0.9733,0.9731,0.9889,0.9896,0.9902,0,0,0,0,0,0,0,0,0,0,0,0,0,0.9415,0.9287,0.9557,0.9589,0.9594,0.9711,0.9714,0.9716,0.9737,0.9735,0.9732,0.973,0.9887,0.9895,0.9903,0.9999,0,0,0.9929,0.9932,0,0,0,0,0,0,0,0,0.9407,0.9425,0.9583,0.9587,0.9593,0.9702,0.9675,0.9811,0.9737,0.9683,0.9732,0.9729,0.983,0.9843,0.9877,1.0006,1.0013,0.993,0.9935,0.9938,0.9941,0,0,0,0,0,0,0,0.9398,0.9418,0.9618,0.9585,0.9591,0.9597,0.9613,0.9701,0.9767,0.9687,0.9689,0.9707,0.9832,0.9869,0.9881,1.0015,0.9929,0.9937,0.9942,0.9945,1.0234,1.0237,0,0,0,0,0,0,0.9382,0.941,0.9613,0.9623,0.9493,0.9603,0.9622,0.9669,0.9766,0.9778,0.9709,0.9707,0.9855,0.9871,0.9886,1.0008,0.9938,0.9946,0.9951,1.0232,1.0235,1.0238,0,0,0,0,0,0,0.9376,0.94,0.9607,0.9517,0.9544,0.9611,0.9664,0.9674,0.971,0.9782,0.9794,0.9734,0.9854,0.9874,0.9971,1.0013,0.995,0.9957,1.0229,1.0233,1.0236,1.0249,0,0,0,0,0,0,0.9368,0.9398,0.9435,0.9518,0.9549,0.9689,0.9666,0.9678,0.9724,0.9724,0.9809,0.9821,0.9854,0.9959,0.998,1.0024,0.9964,1.0225,1.023,1.0235,1.0245,1.0253,1.0259,0,0,0,0,0,0.9358,0.9432,0.9436,0.9461,0.9596,0.9692,0.9709,0.9746,0.9727,0.9766,0.9812,0.9818,1.0004,0.9968,0.9992,1.0039,1.0223,1.0229,1.0235,1.0242,1.0251,1.0259,0,0,0,0,0,0,0.9351,0.9443,0.945,0.9552,0.9614,0.9695,0.9744,0.9754,0.9823,0.982,0.9863,0.9882,0.9978,1.0018,0.9976,1.0138,1.0112,1.0123,1.0109,1.0119,1.0126,1.0116,0.9971,0,0,0,0,0,0.9361,0.9431,0.9508,0.959,0.9621,0.9677,0.972,0.9743,0.9809,0.9836,0.9889,0.9954,1.0027,1.0075,1.0146,1.025,1.027,1.0294,1.0301,1.0307,1.0317,1.0378,1.039,1.0257,1.0257,1.0257,0,0,0.9384,0.9442,0.9484,0.959,0.9641,0.9714,0.9699,0.9776,0.983,0.9847,0.9944,0.9985,1.0059,1.0161,1.0208,1.0197,1.0358,1.0314,1.0318,1.0326,1.0385,1.0398,1.0409,1.0261,1.0261,1.026,0,0,0.9462,0.9512,0.9588,0.964,0.9717,0.9754,0.9772,0.9852,0.988,0.9977,0.9992,1.0057,1.0182,1.0236,1.0279,1.0378,1.0387,1.04,1.0439,1.0498,1.0508,1.0518,1.0557,1.057,1.0409,1.0409,1.0409,0,0.948,0.959,0.9626,0.9703,0.9751,0.9769,0.9847,0.9895,0.9992,1.0025,1.001,1.0169,1.022,1.0336,1.0361,1.0394,1.0418,1.0392,1.0504,1.0514,1.0523,1.0561,1.0575,1.041,1.041,1.041,1.041,0,0.961,0.9685,0.9737,0.9831,0.9884,0.9961,1.001,1.0059,1.0077,1.0116,1.0215,1.0277,1.0363,1.0391,1.0409,1.0511,1.0502,1.0495,1.047,1.0537,1.0573,1.0587,1.0412,1.0412,1.0411,1.0411,0,0,0.969,0.9803,0.9822,0.9866,0.9953,1.0012,1.009,1.0174,1.0217,1.0282,1.0351,1.0456,1.0451,1.05,1.0524,1.0576,1.0655,1.0563,1.0566,1.0581,1.0774,1.0782,1.0798,1.066,1.0662,1.0665,1.0769,0,0.9781,0.9922,0.9957,1.0078,1.015,1.0168,1.0237,1.0298,1.0336,1.0403,1.0444,1.052,1.0505,1.0536,1.0587,1.0634,1.0695,1.0626,1.0727,1.073,1.0711,1.0816,1.0824,1.092,1.0783,1.0786,1.0787,0,0.9906,0.9976,1.0104,1.0184,1.0215,1.0276,1.0358,1.042,1.049,1.0514,1.057,1.0589,1.0673,1.0641,1.0758,1.0711,1.0754,1.0783,1.0787,1.0801,1.0765,1.0837,1.0951,1.0967,1.0809,1.0808,1.0806,0,0.9957,1.0082,1.0176,1.0212,1.0306,1.0349,1.0391,1.0458,1.0507,1.0577,1.061,1.0688,1.0733,1.0793,1.0834,1.0806,1.0949,1.092,1.0974,1.0973,1.1006,1.1005,1.1133,1.1027,1.1027,1.1026,1.1026,0,1.0057,1.0136,1.02,1.0258,1.0347,1.0387,1.0474,1.0515,1.0576,1.0643,1.0662,1.0725,1.0773,1.0843,1.0874,1.0969,1.0987,1.1011,1.1019,1.1012,1.1009,1.1043,1.1039,1.103,1.1029,1.1029,1.1028,0,1.013,1.0176,1.028,1.0361,1.0383,1.0445,1.0515,1.0573,1.061,1.0695,1.0718,1.0778,1.0861,1.0907,1.101,1.1032,1.1139,1.1141,1.1116,1.112,1.1173,1.1169,1.1332,1.1357,1.1229,1.123,1.1231,0,1.0193,1.0255,1.0342,1.0389,1.0431,1.0505,1.0556,1.0596,1.0648,1.0733,1.0781,1.0865,1.0936,1.1068,1.1121,1.1201,1.1209,1.126,1.1221,1.1213,1.1215,1.1212,1.122,1.1268,1.1269,1.127,1.1271,0,1.0302,1.0322,1.0394,1.0474,1.0534,1.0599,1.0663,1.07,1.0752,1.0809,1.0895,1.0949,1.1056,1.114,1.1225,1.1268,1.128,1.1282,1.13,1.1295,1.128,1.1293,1.1139,1.1279,1.1279,1.1278,1.1277,1.1277,1.0375,1.0432,1.0503,1.0583,1.0635,1.0696,1.0755,1.08,1.0872,1.0963,1.0982,1.1073,1.1143,1.1258,1.1303,1.1376,1.1367,1.1391,1.1398,1.1405,1.1409,1.1264,1.1391,1.1391,1.1391,1.139,1.139,0,1.0488,1.0535,1.0608,1.0698,1.0762,1.0765,1.0837,1.089,1.097,1.1034,1.1103,1.1203,1.1285,1.1345,1.1429,1.1476,1.1483,1.1497,1.1496,1.1507,1.141,1.1389,1.149,1.1489,1.1489,1.1489,1.1489,1.1489,1.0555,1.0652,1.0681,1.0804,1.085,1.094,1.0982,1.1038,1.109,1.12,1.1269,1.1307,1.137,1.1459,1.1535,1.1551,1.1583,1.1596,1.1613,1.1523,1.1513,1.1503,1.1483,1.1602,1.1602,1.1704,1.1705,1.1705]}]]